Regional Weather Roundup
Issued by NWS

Home | Current Version | Previous Version | Graphics & Text | Print | Product List | Glossary On
Versions: 1 2 3 4 5 6 7 8 9 10 11 12 13 14 15 16 17 18 19 20 21 22 23 24 25 26 27 28 29 30 31 32 33 34 35 36 37 38 39 40 41 42 43 44 45 46 47 48 49 50
000
ASUS43 KLMK 240610
RWRKY
KENTUCKY REGIONAL WEATHER ROUNDUP
NATIONAL WEATHER SERVICE LOUISVILLE KY
200 AM EDT MON JUL 24 2017

NOTE "FAIR" INDICATES FEW OR NO CLOUDS BELOW 12,000 FEET
WITH NO SIGNIFICANT WEATHER AND/OR OBSTRUCTIONS TO VISIBILITY.

KYZ001>023-026-027-061>063-070>075-240700-
WESTERN AND SOUTH CENTRAL KENTUCKY

CITY           SKY/WX    TMP DP  RH WIND       PRES   REMARKS
PADUCAH        CLEAR     76  71  85 CALM      29.89F
HENDERSON      CLEAR     71  70  96 SW6       29.89S
OWENSBORO      PTCLDY    72  71  97 SW6       29.88F
HOPKINSVILLE   CLOUDY    78  74  87 W5        29.92R
BOWLING GREEN  CLEAR     76  72  87 S8        29.92R
GLASGOW        CLOUDY    71  71 100 SW5       29.91F
$$

KYZ024-025-028>034-038-045-046-053-240700-
NORTH CENTRAL KENTUCKY

CITY           SKY/WX    TMP DP  RH WIND       PRES   REMARKS
LOUISVILLE/SDF PTCLDY    77  72  84 SW5       29.88R
LOUISVILLE/LOU CLEAR     74  74 100 CALM      29.89R
FORT KNOX      CLEAR     71  70  95 CALM      29.88R
$$

KYZ035>037-039>044-047>052-055>060-089>105-240700-
NORTHEAST KENTUCKY

CITY           SKY/WX    TMP DP  RH WIND       PRES   REMARKS
LEXINGTON      CLEAR     72  68  87 SW5       29.91R
COVINGTON      CLEAR     68  68 100 S6        29.87S
FRANKFORT      CLEAR     73  69  87 CALM      29.88R
$$

KYZ054-064>069-076>088-106>120-240700-
SOUTHEAST KENTUCKY

CITY           SKY/WX    TMP DP  RH WIND       PRES   REMARKS
JACKSON        CLOUDY    72  70  93 CALM      29.91S
LONDON         PTCLDY    71  67  87 SW5       29.93S
SOMERSET       CLEAR     70  70 100 CALM      29.93F
MIDDLESBORO    CLOUDY    70  70 100 CALM      29.95S
MONTICELLO     CLOUDY    68  68 100 W10       29.95S
$$





USA.gov is the U.S. government's official web portal to all federal, state and local government web resources and services.